SXTCF ENML-ENBR

Flight info

Callsign SXTCF
Flight time N/A
Altitude 6000
Route VESTNES SJOHOLT STRANDA HELLESYLT GRODAAS INNVIK BYRKJELO SKEI VASSENDEN BRINGELAND YTREOPPEDAL DCT VDO SANDVIKEN
Aircraft PA24/L-SG/S

Departure

Time 2026-04-19 01:34
Airport Molde Airport, Årø (ENML)

Arrival

Time N/A
Airport Bergen Airport, Flesland (ENBR)
Time Latitude Longitude Altitude Speed Heading
2026-04-19 01:24 62.74501 7.25662 17 ft 0 kts 13°
2026-04-19 01:31 62.74501 7.25663 17 ft 1 kts 13°
2026-04-19 01:32 62.74506 7.25674 17 ft 0 kts 68°
2026-04-19 01:33 62.74507 7.25751 17 ft 9 kts 104°
2026-04-19 01:33 62.74463 7.25845 15 ft 10 kts 157°
2026-04-19 01:33 62.74438 7.25972 14 ft 16 kts 73°
2026-04-19 01:33 62.74568 7.26818 46 ft 88 kts 71°
2026-04-19 01:34 62.74813 7.28142 399 ft 94 kts 66°
2026-04-19 01:34 62.74790 7.29494 814 ft 100 kts 130°
2026-04-19 01:34 62.74078 7.29636 1179 ft 121 kts 210°
2026-04-19 01:34 62.73447 7.28325 1624 ft 127 kts 221°
2026-04-19 01:35 62.72812 7.26959 2010 ft 128 kts 220°
2026-04-19 01:35 62.72193 7.25635 2296 ft 121 kts 219°
2026-04-19 01:35 62.71563 7.24377 2443 ft 125 kts 218°
2026-04-19 01:35 62.70902 7.23137 2670 ft 124 kts 215°
2026-04-19 01:36 62.70219 7.21990 2889 ft 123 kts 211°
2026-04-19 01:36 62.69518 7.20916 3101 ft 123 kts 212°
2026-04-19 01:36 62.69056 7.20207 3222 ft 124 kts 212°
2026-04-19 01:36 62.68042 7.18677 3202 ft 139 kts 210°
2026-04-19 01:37 62.67219 7.17535 3209 ft 141 kts 209°
2026-04-19 01:37 62.66416 7.16437 3377 ft 132 kts 209°
2026-04-19 01:37 62.65657 7.15389 3534 ft 127 kts 209°
2026-04-19 01:37 62.65168 7.14715 3634 ft 124 kts 209°
2026-04-19 01:38 62.64447 7.13713 3811 ft 122 kts 209°
2026-04-19 01:38 62.63740 7.12717 3947 ft 120 kts 209°
2026-04-19 01:38 62.63044 7.11723 4085 ft 119 kts 209°
2026-04-19 01:38 62.62307 7.10988 4220 ft 115 kts 193°
2026-04-19 01:39 62.61535 7.10543 4354 ft 114 kts 193°
2026-04-19 01:39 62.60769 7.10117 4484 ft 113 kts 192°
2026-04-19 01:39 62.60011 7.09670 4640 ft 112 kts 197°
2026-04-19 01:39 62.59301 7.08997 4789 ft 110 kts 209°
2026-04-19 01:40 62.58752 7.07901 5022 ft 105 kts 220°
2026-04-19 01:40 62.58273 7.06758 5244 ft 100 kts 221°
2026-04-19 01:40 62.57817 7.05655 5499 ft 98 kts 226°
2026-04-19 01:40 62.57538 7.04285 5676 ft 99 kts 238°
2026-04-19 01:41 62.57284 7.02929 5931 ft 98 kts 238°
2026-04-19 01:41 62.56926 7.01518 6007 ft 117 kts 230°
2026-04-19 01:41 62.56379 7.00101 6012 ft 127 kts 223°
2026-04-19 01:41 62.55757 6.98731 6008 ft 128 kts 220°
2026-04-19 01:42 62.55126 6.97355 6001 ft 128 kts 221°
2026-04-19 01:42 62.54496 6.96002 5999 ft 127 kts 218°
2026-04-19 01:42 62.52904 6.94637 5999 ft 125 kts 191°
2026-04-19 01:43 62.52048 6.94463 6005 ft 123 kts 182°
2026-04-19 01:43 62.51179 6.94489 6003 ft 126 kts 182°
2026-04-19 01:43 62.50298 6.94514 6006 ft 127 kts 182°
2026-04-19 01:43 62.49405 6.94544 5986 ft 134 kts 182°
2026-04-19 01:44 62.48481 6.94570 5993 ft 133 kts 182°
2026-04-19 01:44 62.47557 6.94594 5990 ft 132 kts 182°
2026-04-19 01:44 62.46642 6.94615 6003 ft 132 kts 182°
2026-04-19 01:44 62.45715 6.94628 6000 ft 134 kts 182°
2026-04-19 01:45 62.44786 6.94640 5993 ft 132 kts 182°
2026-04-19 01:45 62.43897 6.94660 6007 ft 125 kts 182°
2026-04-19 01:45 62.43014 6.94675 6003 ft 129 kts 182°
2026-04-19 01:45 62.42103 6.94681 6003 ft 132 kts 182°
2026-04-19 01:46 62.41193 6.94686 6003 ft 130 kts 182°
2026-04-19 01:46 62.40293 6.94693 6006 ft 129 kts 182°
2026-04-19 01:46 62.39394 6.94695 6001 ft 129 kts 182°
2026-04-19 01:46 62.38501 6.94706 6000 ft 127 kts 182°
2026-04-19 01:47 62.37630 6.94718 5998 ft 127 kts 182°
2026-04-19 01:47 62.36740 6.94809 6004 ft 131 kts 174°
2026-04-19 01:47 62.35843 6.95233 6011 ft 133 kts 172°
2026-04-19 01:47 62.34933 6.95662 6009 ft 134 kts 169°
2026-04-19 01:48 62.34016 6.96022 6001 ft 134 kts 171°
2026-04-19 01:48 62.33116 6.96521 6011 ft 133 kts 165°
2026-04-19 01:48 62.32218 6.97064 6003 ft 134 kts 166°
2026-04-19 01:48 62.31323 6.97615 6007 ft 133 kts 166°
2026-04-19 01:49 62.30441 6.98157 6006 ft 131 kts 166°
2026-04-19 01:49 62.29566 6.98693 5992 ft 130 kts 166°
2026-04-19 01:49 62.28701 6.99227 5990 ft 128 kts 166°
2026-04-19 01:49 62.27853 6.99759 5996 ft 126 kts 166°
2026-04-19 01:50 62.27001 7.00281 6005 ft 128 kts 166°
2026-04-19 01:50 62.26150 7.00784 5995 ft 126 kts 166°
2026-04-19 01:50 62.25302 7.01302 5995 ft 127 kts 166°
2026-04-19 01:50 62.24447 7.01806 5993 ft 127 kts 169°
2026-04-19 01:51 62.23583 7.02122 5997 ft 127 kts 172°
2026-04-19 01:51 62.22705 7.02417 5995 ft 128 kts 172°
2026-04-19 01:51 62.21824 7.02692 5997 ft 128 kts 175°
2026-04-19 01:51 62.20934 7.02652 5990 ft 128 kts 186°
2026-04-19 01:52 62.20056 7.02307 5988 ft 128 kts 189°
2026-04-19 01:52 62.19187 7.01866 5985 ft 128 kts 192°
2026-04-19 01:52 62.18322 7.01390 5984 ft 128 kts 192°
2026-04-19 01:52 62.17466 7.00884 5983 ft 131 kts 197°
2026-04-19 01:53 62.16632 7.00040 5970 ft 133 kts 205°
2026-04-19 01:53 62.15841 6.99031 5980 ft 133 kts 207°
2026-04-19 01:53 62.15056 6.97991 5965 ft 133 kts 207°
2026-04-19 01:53 62.14286 6.96970 5959 ft 132 kts 207°
2026-04-19 01:54 62.13503 6.95930 5957 ft 132 kts 207°
2026-04-19 01:54 62.12725 6.94918 6018 ft 135 kts 207°
2026-04-19 01:54 62.11912 6.93922 6014 ft 139 kts 207°
2026-04-19 01:54 62.11071 6.92877 6014 ft 140 kts 207°
2026-04-19 01:55 62.10250 6.91720 6018 ft 142 kts 212°
2026-04-19 01:55 62.09494 6.90392 5864 ft 143 kts 220°